Location: Marcé
(47.5801°N, 0.3280°W)
Time: 20:04:57
(UTC+01:00)

Explorer 7 - Pass Details

Date: 04 December 2021
Orbit: 483 x 674 km, 50.3° (Epoch: 17 January)

Event Time Altitude Azimuth Distance (km) Brightness Sun altitude
Rises 09:31:14 0° 276° (W) 2,735 9.9 6.9°
Reaches altitude 10° 09:33:34 10° 281° (W) 1,807 9.0 7.2°
Maximum altitude 09:37:36 56° 0° (N) 621 7.0 7.7°
Drops below altitude 10° 09:41:26 10° 80° (E) 1,714 9.9 8.1°
Sets 09:43:36 0° 85° (E) 2,578 10.8 8.4°
